This is the latest recevied weather packets stored in our database for station/object KF7SOJ. If no packets are shown the sender has not sent any weather packets the latest 10 day(s).
| Time | Temp. | Humidity | Pressure | Rain* | Wind** | Luminosity | Snow |
|---|---|---|---|---|---|---|---|
| 1777536347 | 3.33° C | 57% | 938.4 hPa | 0 mm | - | 0 W/m² | - |
| 1777536043 | 3.33° C | 57% | 938.5 hPa | 0 mm | - | 0 W/m² | - |
| 1777535738 | 3.89° C | 57% | 938.4 hPa | 0 mm | - | 0 W/m² | - |
| 1777535436 | 4.44° C | 56% | 938.5 hPa | 0 mm | - | 0 W/m² | - |
| 1777535133 | 4.44° C | 58% | 938.5 hPa | 0 mm | - | 0 W/m² | - |
| 1777534829 | 5° C | 60% | 938.5 hPa | 0 mm | - | 0 W/m² | - |
| 1777534526 | 5° C | 58% | 938.3 hPa | 0 mm | - | 0 W/m² | - |
| 1777534224 | 5.56° C | 54% | 938.5 hPa | 0 mm | - | 0 W/m² | - |
| 1777533921 | 5° C | 55% | 938.5 hPa | 0 mm | - | 0 W/m² | - |
| 1777533619 | 5° C | 53% | 938.4 hPa | 0 mm | - | 0 W/m² | - |
| 1777533314 | 5° C | 54% | 938.5 hPa | 0 mm | - | 0 W/m² | - |
| 1777533011 | 4.44° C | 55% | 938.4 hPa | 0 mm | - | 0 W/m² | - |
| 1777532709 | 4.44° C | 55% | 938.5 hPa | 0 mm | - | 0 W/m² | - |
| 1777532404 | 5° C | 53% | 938.6 hPa | 0 mm | - | 0 W/m² | - |
| 1777532101 | 5° C | 51% | 938.3 hPa | 0 mm | - | 0 W/m² | - |
| 1777531797 | 5° C | 51% | 938.5 hPa | 0 mm | - | 0 W/m² | - |
| 1777531493 | 5° C | 52% | 938.3 hPa | 0 mm | - | 0 W/m² | - |
| 1777531191 | 5° C | 53% | 938.3 hPa | 0 mm | - | 0 W/m² | - |
| 1777530889 | 4.44° C | 54% | 938.4 hPa | 0 mm | - | 0 W/m² | - |
| 1777530586 | 5° C | 51% | 938.3 hPa | 0 mm | - | 0 W/m² | - |
| 1777530282 | 5.56° C | 50% | 938.4 hPa | 0 mm | - | 0 W/m² | - |
| 1777529979 | 5.56° C | 48% | 938.3 hPa | 0 mm | - | 0 W/m² | - |
| 1777529676 | 5.56° C | 47% | 938.3 hPa | 0 mm | - | 0 W/m² | - |
| 1777529372 | 5.56° C | 47% | 938.3 hPa | 0 mm | - | 0 W/m² | - |
| 1777529069 | 6.11° C | 47% | 938.3 hPa | 0 mm | - | 0 W/m² | - |
* Rain latest hour (hover to see other rain measurements)
** Current wind speed in m/s (hover to see current wind gust speed)